Location: Briis
(48.6240°N, 2.1211°E)
Time: 18:16:48
(UTC+00:00)

PKM - Pass Details

Date: 25 September 2020
Orbit: 561 x 13594 km, 55.4° (Epoch: 21 October)

Event Time Altitude Azimuth Distance (km) Brightness Sun altitude
Exits shadow 04:14:41 22° 286° (WNW) 1,325 5.3 -15.2°
Maximum altitude 04:16:46 47° 221° (SW) 752 4.1 -14.9°
Drops below altitude 10° 04:20:24 10° 146° (SE) 2,038 7.0 -14.3°
Sets 04:23:04 0° 140° (SE) 3,341 8.2 -13.9°
